CW9443 Weather Reports


Display with metric or nautical units.
time (UTC)temp
F
wind
direction
speed
MPH
gust
MPH
rain 1hr
in
rain 24hr
in
rain mn
in
humidity
%
barometer
mb
20260831131520 60 248 0.0 0.0 0.00 0.00 0.00 92 1010.5
20260831130017 60 248 0.0 0.0 0.00 0.00 0.00 91 1010.6
20260831124518 60 248 0.0 0.0 0.00 0.00 0.00 91 1010.5
20260831123014 60 248 0.0 0.0 0.00 0.00 0.00 91 1010.4
20260831121509 61 248 0.0 0.0 0.00 0.00 0.00 91 1010.4
20260831120014 61 248 0.0 0.0 0.00 0.00 0.00 91 1010.3
20260831114512 61 248 0.0 0.0 0.00 0.00 0.00 91 1010.3
20260831113007 61 248 0.0 0.0 0.00 0.00 0.00 90 1010.3
20260831111503 61 248 0.0 0.0 0.00 0.00 0.00 90 1010.4
20260831110005 62 248 0.0 0.0 0.00 0.00 0.00 90 1010.5
20260831104605 62 248 0.0 0.0 0.00 0.00 0.00 90 1010.5
20260831104508 62 248 0.0 0.0 0.00 0.00 0.00 90 1010.6
20260831103058 62 248 0.0 0.0 0.00 0.00 0.00 90 1010.5
20260831101604 62 248 0.0 0.0 0.00 0.00 0.00 89 1010.4
20260831100103 62 248 0.0 0.0 0.00 0.00 0.00 89 1010.4
20260831094554 63 248 0.0 0.0 0.00 0.00 0.00 89 1010.2
20260831093056 63 248 0.0 0.0 0.00 0.00 0.00 89 1010.1
20260831091553 63 248 0.0 0.0 0.00 0.00 0.00 88 1010.1
20260831084558 63 248 0.0 0.0 0.00 0.00 0.00 88 1010.2
20260831083051 63 248 0.0 0.0 0.00 0.00 0.00 88 1010.2
20260831081547 63 248 0.0 0.0 0.00 0.00 0.00 87 1010.2
20260831080045 63 248 0.0 0.0 0.00 0.00 0.00 86 1010.2
20260831074546 64 248 0.0 0.0 0.00 0.00 0.00 86 1010.0
20260831073045 64 248 0.0 0.0 0.00 0.00 0.00 85 1010.0
20260831071541 64 248 0.0 0.0 0.00 0.00 0.00 84 1010.0
20260831070053 65 248 0.0 0.0 0.00 0.00 0.00 83 1009.9
20260831064541 66 248 0.0 0.0 0.00 0.00 0.00 81 1009.9
20260831063044 66 248 0.0 0.0 0.00 0.00 0.00 81 1010.1
20260831061540 65 248 0.0 0.0 0.00 0.00 0.00 82 1009.8
20260831060039 65 248 0.0 0.0 0.00 0.00 0.00 83 1009.9
20260831054542 65 248 0.0 0.0 0.00 0.00 0.00 83 1010.0
20260831053048 65 248 0.0 0.0 0.00 0.00 0.00 83 1010.1
20260831051543 66 248 0.0 0.0 0.00 0.00 0.00 83 1010.1
20260831050044 66 248 0.0 0.0 0.00 0.00 0.00 82 1010.1
20260831044538 66 248 0.0 0.0 0.00 0.00 0.00 82 1010.0
20260831043041 66 248 0.0 0.0 0.00 0.00 0.00 80 1010.0
20260831041538 67 248 0.0 0.0 0.00 0.00 0.00 79 1010.0
20260831040035 67 248 0.0 0.0 0.00 0.00 0.00 77 1009.8
20260831034536 68 248 0.0 0.0 0.00 0.00 0.00 76 1009.7
20260831033056 69 248 0.0 0.0 0.00 0.00 0.00 74 1009.3
20260831031533 69 248 0.0 0.0 0.00 0.00 0.00 73 1009.1
20260831030032 70 248 0.0 0.0 0.00 0.00 0.00 72 1009.0
20260831024532 70 248 0.0 0.0 0.00 0.00 0.00 71 1008.9
20260831023033 71 248 0.0 0.0 0.00 0.00 0.00 69 1008.8
20260831021530 72 248 0.0 0.0 0.00 0.00 0.00 67 1008.8
20260831020030 73 248 0.0 0.0 0.00 0.00 0.00 64 1008.9
20260831014530 74 248 0.0 0.0 0.00 0.00 0.00 62 1008.8
20260831013032 76 242 0.0 0.0 0.00 0.00 0.00 60 1009.0
20260831011536 77 242 0.0 0.0 0.00 0.00 0.00 60 1009.0
20260831010028 78 245 0.0 0.0 0.00 0.00 0.00 59 1009.0
20260831004529 77 255 0.0 0.0 0.00 0.00 0.00 60 1008.8
20260831003034 78 215 0.0 0.0 0.00 0.00 0.00 61 1008.8
20260831001529 79 219 0.0 0.0 0.00 0.00 0.00 60 1008.7
20260831000034 80 244 0.0 0.0 0.00 0.00 0.00 59 1008.7
20260830234535 81 242 0.0 0.0 0.00 0.00 0.00 58 1008.8
20260830233026 80 233 0.0 0.0 0.00 0.00 0.00 60 1008.7
20260830231524 82 227 0.0 0.0 0.00 0.00 0.00 57 1008.8
20260830230024 83 223 0.0 0.0 0.00 0.00 0.00 56 1008.8
20260830224523 82 219 0.0 0.0 0.00 0.00 0.00 57 1008.9
20260830223025 83 237 0.0 0.0 0.00 0.00 0.00 55 1009.1
20260830221534 85 243 0.0 0.0 0.00 0.00 0.00 55 1009.4
20260830220022 83 222 0.0 0.0 0.00 0.00 0.00 57 1009.6
20260830214519 82 220 0.0 0.0 0.00 0.00 0.00 58 1009.7
20260830213020 83 230 0.0 0.0 0.00 0.00 0.00 57 1010.0
20260830211519 84 251 0.0 0.0 0.00 0.00 0.00 57 1010.1
20260830210015 84 244 0.0 0.0 0.00 0.00 0.00 56 1010.2
20260830204518 83 237 0.0 0.0 0.00 0.00 0.00 58 1010.2
20260830203015 84 213 0.0 0.0 0.00 0.00 0.00 58 1010.3
20260830201510 84 217 0.0 0.0 0.00 0.00 0.00 57 1010.3
20260830200009 85 237 0.0 0.0 0.00 0.00 0.00 57 1010.4
20260830194507 82 213 1.0 0.0 0.00 0.00 0.00 60 1010.5
20260830193009 82 256 0.0 0.0 0.00 0.00 0.00 58 1010.5
20260830191510 82 210 1.0 0.0 0.00 0.00 0.00 59 1010.5
20260830190005 83 223 0.0 0.0 0.00 0.00 0.00 57 1010.6
20260830184502 83 224 0.0 0.0 0.00 0.00 0.00 58 1010.6
20260830183002 83 228 0.0 0.0 0.00 0.00 0.00 58 1010.6
20260830181555 80 230 0.0 0.0 0.00 0.00 0.00 61 1010.6
20260830180057 79 230 0.0 0.0 0.00 0.00 0.00 63 1010.5
20260830174602 79 241 0.0 0.0 0.00 0.00 0.00 64 1010.5
20260830173114 78 248 0.0 0.0 0.00 0.00 0.00 65 1010.5
20260830171553 78 248 0.0 0.0 0.00 0.00 0.00 67 1010.5
20260830170046 78 248 0.0 0.0 0.00 0.00 0.00 66 1010.5
20260830164542 77 248 0.0 0.0 0.00 0.00 0.00 65 1010.3
20260830163038 76 248 0.0 0.0 0.00 0.00 0.00 68 1010.4
20260830161539 75 248 0.0 0.0 0.00 0.00 0.00 69 1010.4
20260830160038 75 248 0.0 0.0 0.00 0.00 0.00 69 1010.3
20260830154539 76 248 0.0 0.0 0.00 0.00 0.00 68 1010.4
20260830153041 74 248 0.0 0.0 0.00 0.00 0.00 72 1010.4
20260830151531 75 248 0.0 0.0 0.00 0.00 0.00 72 1010.4
20260830150029 73 248 0.0 0.0 0.00 0.00 0.00 75 1010.3
20260830144522 70 248 0.0 0.0 0.00 0.00 0.00 80 1010.3
20260830143019 68 248 0.0 0.0 0.00 0.00 0.00 87 1010.4
20260830141512 66 248 0.0 0.0 0.00 0.00 0.00 89 1010.3
20260830140008 65 248 0.0 0.0 0.00 0.00 0.00 89 1010.1
20260830134509 65 248 0.0 0.0 0.00 0.00 0.00 89 1009.9
20260830133010 65 248 0.0 0.0 0.00 0.00 0.00 90 1009.4